sat.trackr.live / text

‹ back to catalog

STARLINK-3328

NORAD 50832 · 2022-001AF

PAYLOAD ACTIVE UNKNOWN

§ Identity

Operator
Country
US
Launch date
2022-01-06
Launch site
AFETR
Launch vehicle
Mass (kg)
RCS (m²)

Purposes: comms

External: N2YO · Heavens-Above · Gunter

§ Orbital elements

Epoch: 2026-09-19T23:23:02.842944Z

Period
95.27 min
Inclination
53.1727°
Eccentricity
0.0001781
Mean motion
15.11500575 rev/d
Perigee alt
530.4 km
Apogee alt
532.9 km
Semi-major
6,909.8 km
B*
7.6972e-4
RAAN
25.5134°
Arg perigee
113.7942°
Mean anomaly
246.3237°
Rev number
25,961

§ Raw data

STARLINK-33281 50832U 22001AF  26262.97433846  .00012911  00000+0  76972-3 0  99922 50832  53.1727  25.5134 0001781 113.7942 246.3237 15.11500575259619

JSON: /api/v1/satellites/50832 · /tle

For live sub-satellite position, see the globe view (requires WebGL).

§ Visibility from observer

Set your observer location to see the next 7 days of passes ≥ 10°. The values pass through the URL so the page stays shareable.

No JS? Fill the form by hand. The geolocation button needs JavaScript.